Hourly Weather Holovli

Today, 11 April, Sunday

Time Temperature Precipitation Wind Pressure Humidity
00:00 +4°C° 0 mm 3 mps 745 mmHg 63%
01:00 +4°C° 0 mm 3 mps 746 mmHg 63%
02:00 +4°C° 0 mm 3 mps 746 mmHg 64%
03:00 +3°C° 0 mm 3 mps 746 mmHg 64%
04:00 +3°C° 0 mm 3 mps 746 mmHg 65%
05:00 +3°C° 0 mm 3 mps 746 mmHg 66%
06:00 +4°C° 0 mm 3 mps 746 mmHg 62%
07:00 +5°C° 0 mm 3 mps 747 mmHg 58%
08:00 +7°C° 0 mm 4 mps 747 mmHg 55%
09:00 +10°C° 0 mm 4 mps 747 mmHg 49%
10:00 +10°C° 0 mm 5 mps 747 mmHg 44%
11:00 +13°C° 0 mm 6 mps 747 mmHg 39%
12:00 +14°C° 0 mm 6 mps 747 mmHg 37%
13:00 +14°C° 0 mm 5 mps 747 mmHg 36%
14:00 +15°C° 0 mm 5 mps 747 mmHg 34%
15:00 +15°C° 0 mm 5 mps 746 mmHg 36%
16:00 +14°C° 0 mm 5 mps 746 mmHg 38%
17:00 +14°C° 0 mm 4 mps 746 mmHg 40%
18:00 +12°C° 0 mm 4 mps 746 mmHg 46%
19:00 +10°C° 0 mm 4 mps 746 mmHg 52%
20:00 +8°C° 0 mm 4 mps 747 mmHg 58%
21:00 +8°C° 0 mm 3 mps 747 mmHg 60%
22:00 +7°C° 0 mm 3 mps 747 mmHg 61%
23:00 +5°C° 0 mm 3 mps 747 mmHg 63%

Tomorrow, 12 April, Monday

Time Temperature Precipitation Wind Pressure Humidity
00:00 +5°C° 0 mm 3 mps 747 mmHg 64%
01:00 +4°C° 0 mm 3 mps 747 mmHg 65%
02:00 +4°C° 0 mm 3 mps 747 mmHg 66%
03:00 +3°C° 0 mm 3 mps 746 mmHg 67%
04:00 +3°C° 0 mm 3 mps 746 mmHg 68%
05:00 +3°C° 0 mm 3 mps 746 mmHg 69%
06:00 +4°C° 0 mm 3 mps 746 mmHg 65%
07:00 +7°C° 0 mm 3 mps 746 mmHg 61%
08:00 +7°C° 0 mm 4 mps 746 mmHg 56%
09:00 +10°C° 0 mm 4 mps 746 mmHg 50%
10:00 +12°C° 0 mm 4 mps 746 mmHg 45%
11:00 +13°C° 0 mm 4 mps 745 mmHg 39%
12:00 +14°C° 0 mm 4 mps 745 mmHg 37%
13:00 +16°C° 0 mm 3 mps 744 mmHg 35%
14:00 +17°C° 0 mm 3 mps 744 mmHg 33%
15:00 +17°C° 0 mm 3 mps 744 mmHg 35%
16:00 +17°C° 0 mm 3 mps 743 mmHg 36%
17:00 +17°C° 0 mm 3 mps 743 mmHg 38%
18:00 +14°C° 0 mm 3 mps 743 mmHg 44%
19:00 +13°C° 0 mm 2 mps 743 mmHg 49%
20:00 +10°C° 0 mm 2 mps 744 mmHg 54%
21:00 +10°C° 0 mm 2 mps 743 mmHg 57%
22:00 +9°C° 0 mm 2 mps 743 mmHg 60%
23:00 +8°C° 0 mm 2 mps 743 mmHg 62%

Day after tomorrow, 13 April, Tuesday

Time Temperature Precipitation Wind Pressure Humidity
00:00 +8°C° 0 mm 2 mps 743 mmHg 64%
01:00 +8°C° 0 mm 2 mps 743 mmHg 65%
02:00 +7°C° 0 mm 2 mps 743 mmHg 67%
03:00 +7°C° 0 mm 2 mps 743 mmHg 67%
04:00 +8°C° 0 mm 1 mps 743 mmHg 68%
05:00 +8°C° 0 mm 1 mps 742 mmHg 68%
06:00 +9°C° 0 mm 1 mps 743 mmHg 64%
07:00 +10°C° 0 mm 1 mps 743 mmHg 61%
08:00 +12°C° 0 mm 1 mps 743 mmHg 57%
09:00 +13°C° 0 mm 1 mps 743 mmHg 51%
10:00 +15°C° 0 mm 1 mps 742 mmHg 46%
11:00 +18°C° 0 mm 1 mps 742 mmHg 41%
12:00 +17°C° 0 mm 2 mps 742 mmHg 39%
13:00 +18°C° 0 mm 2 mps 742 mmHg 37%
14:00 +19°C° 0 mm 2 mps 741 mmHg 35%
15:00 +19°C° 0 mm 2 mps 741 mmHg 37%
16:00 +18°C° 0 mm 2 mps 741 mmHg 39%
17:00 +18°C° 0 mm 2 mps 740 mmHg 40%
18:00 +16°C° 0 mm 2 mps 740 mmHg 50%
19:00 +15°C° 0 mm 2 mps 740 mmHg 59%
20:00 +13°C° 0 mm 2 mps 740 mmHg 69%
21:00 +12°C° 0 mm 2 mps 740 mmHg 73%
22:00 +12°C° 0 mm 2 mps 740 mmHg 77%
23:00 +12°C° 0 mm 1 mps 739 mmHg 81%

14 April, Wednesday

Time Temperature Precipitation Wind Pressure Humidity
00:00 +12°C° 0.4 mm 1 mps 739 mmHg 85%
01:00 +12°C° 0.4 mm 1 mps 739 mmHg 88%
02:00 +11°C° 0.4 mm 1 mps 738 mmHg 91%
03:00 +11°C° 0.9 mm 1 mps 738 mmHg 93%
04:00 +11°C° 0.9 mm 1 mps 738 mmHg 94%
05:00 +11°C° 0.9 mm 1 mps 738 mmHg 96%
06:00 +9°C° 1.1 mm 2 mps 738 mmHg 96%
07:00 +9°C° 1.1 mm 2 mps 738 mmHg 95%
08:00 +9°C° 1.1 mm 2 mps 738 mmHg 95%
09:00 +9°C° 0.7 mm 2 mps 738 mmHg 93%
10:00 +9°C° 0.7 mm 2 mps 738 mmHg 92%
11:00 +9°C° 0.7 mm 2 mps 738 mmHg 90%
12:00 +10°C° 0.2 mm 2 mps 738 mmHg 86%
13:00 +12°C° 0.2 mm 2 mps 738 mmHg 81%
14:00 +11°C° 0.2 mm 3 mps 738 mmHg 77%
15:00 +11°C° 0.3 mm 3 mps 738 mmHg 78%
16:00 +11°C° 0.3 mm 3 mps 737 mmHg 79%
17:00 +11°C° 0.3 mm 3 mps 737 mmHg 81%
18:00 +10°C° 0.1 mm 3 mps 738 mmHg 84%
19:00 +9°C° 0.1 mm 3 mps 738 mmHg 87%
20:00 +8°C° 0.1 mm 2 mps 738 mmHg 90%
21:00 +8°C° 0 mm 2 mps 738 mmHg 91%
22:00 +8°C° 0 mm 2 mps 738 mmHg 91%
23:00 +8°C° 0 mm 2 mps 738 mmHg 92%

15 April, Thursday

Time Temperature Precipitation Wind Pressure Humidity
00:00 +8°C° 0 mm 2 mps 738 mmHg 92%
01:00 +8°C° 0 mm 2 mps 738 mmHg 93%
02:00 +9°C° 0 mm 1 mps 738 mmHg 93%
03:00 +8°C° 0 mm 1 mps 738 mmHg 93%
04:00 +8°C° 0 mm 1 mps 738 mmHg 94%
05:00 +7°C° 0 mm 1 mps 738 mmHg 94%
06:00 +8°C° 0 mm 1 mps 738 mmHg 90%
07:00 +9°C° 0 mm 1 mps 738 mmHg 86%
08:00 +10°C° 0 mm 1 mps 739 mmHg 82%
09:00 +10°C° 0.1 mm 1 mps 739 mmHg 78%
10:00 +11°C° 0.1 mm 1 mps 739 mmHg 75%
11:00 +12°C° 0.1 mm 1 mps 739 mmHg 71%
12:00 +12°C° 0.2 mm 1 mps 739 mmHg 71%
13:00 +12°C° 0.2 mm 1 mps 739 mmHg 71%
14:00 +13°C° 0.2 mm 1 mps 739 mmHg 71%
15:00 +12°C° 0.3 mm 1 mps 739 mmHg 73%
16:00 +12°C° 0.3 mm 2 mps 739 mmHg 74%
17:00 +12°C° 0.3 mm 2 mps 739 mmHg 76%
18:00 +10°C° 0.4 mm 3 mps 739 mmHg 80%
19:00 +10°C° 0.4 mm 3 mps 739 mmHg 84%
20:00 +8°C° 0.4 mm 4 mps 739 mmHg 88%
21:00 +7°C° 0 mm 4 mps 739 mmHg 89%
22:00 +7°C° 0 mm 4 mps 739 mmHg 91%
23:00 +6°C° 0 mm 4 mps 739 mmHg 92%

16 April, Friday

Time Temperature Precipitation Wind Pressure Humidity
00:00 +6°C° 0 mm 4 mps 739 mmHg 93%
01:00 +6°C° 0 mm 4 mps 739 mmHg 94%
02:00 +6°C° 0 mm 4 mps 739 mmHg 96%
03:00 +6°C° 0 mm 4 mps 739 mmHg 95%
04:00 +6°C° 0 mm 4 mps 739 mmHg 94%
05:00 +6°C° 0 mm 4 mps 739 mmHg 93%
06:00 +6°C° 0 mm 4 mps 740 mmHg 92%
07:00 +6°C° 0 mm 4 mps 740 mmHg 91%
08:00 +6°C° 0 mm 4 mps 740 mmHg 90%
09:00 +7°C° 0 mm 4 mps 740 mmHg 88%
10:00 +7°C° 0 mm 5 mps 741 mmHg 86%
11:00 +8°C° 0 mm 5 mps 741 mmHg 84%
12:00 +8°C° 0 mm 5 mps 741 mmHg 84%
13:00 +8°C° 0 mm 5 mps 741 mmHg 84%
14:00 +8°C° 0 mm 5 mps 742 mmHg 84%
15:00 +7°C° 0 mm 5 mps 742 mmHg 84%
16:00 +7°C° 0 mm 5 mps 742 mmHg 84%
17:00 +6°C° 0 mm 5 mps 743 mmHg 84%
18:00 +6°C° 0 mm 5 mps 743 mmHg 86%
19:00 +5°C° 0 mm 5 mps 744 mmHg 87%
20:00 +5°C° 0 mm 5 mps 744 mmHg 89%
21:00 +5°C° 0 mm 5 mps 744 mmHg 86%
22:00 +6°C° 0 mm 5 mps 745 mmHg 84%
23:00 +6°C° 0 mm 5 mps 745 mmHg 81%
Show more